Location: Anuling
(14.1239°N, 120.8922°E)
Time: 06:01:07
(UTC+00:00)

Cosmos 2369 Rocket - Pass Details

Date: 14 January 2026
Orbit: 826 x 853 km, 71.0° (Epoch: 7 February)

Event Time Altitude Azimuth Distance (km) Brightness Sun altitude
Rises 10:13:12 0° 339° (NNW) 3,401 5.4 -6.8°
Reaches altitude 10° 10:15:40 10° 336° (NNW) 2,463 4.7 -7.4°
Maximum altitude 10:21:16 66° 255° (WSW) 911 2.7 -8.7°
Drops below altitude 10° 10:26:49 10° 173° (S) 2,443 4.8 -9.9°
Sets 10:29:16 0° 171° (S) 3,372 5.5 -10.5°
